OSCAR 7 (AO-7) (7530 NORAD) Tracking and Keplerian Element Data

This shows tracking and keplerian element data for the satellite.

Feedback or suggestion? Click here.




ElementValue
Catalog7530
NameOSCAR 7 (AO-7)
Epoch Orbit2955
Epoch Day82.16435457
Epoch Year2019
RAAN50.7595
Inclination101.7339
Eccentricity0.0012224
Argument of Perigee154.5019
Mean Anonmoly274.1509
Mean Motion12.53637216
Decay Rate-4.8E-07
L11 07530U 74089B 19082.16435457 -.00000048 00000-0 -22502-4 0 9997
L22 07530 101.7339 50.7595 0012224 154.5019 274.1509 12.53637216 29553

Live tracking and technical data element details for OSCAR 7 (AO-7) (NORAD 7530). OSCAR 7 (AO-7) can be tracked NOW for your location showing map with azimuth and elevation plus other details from your city location.

Track the satellite on the map from your city or location and see movement details for azimuth, elevation, latitude, longitude, range, height, and movement on the map or in text.







IsCatalogInMostPopularTable: catalog: 7530, numindb: 799
Update: records affected: 1



GetName: 7530 OSCAR 7 (AO-7)

Hit Count: updated at: Sun, 24 Mar 2019 08:42:30 GMT